[[{"header":{"parameterUnit":"m.s-1","parameterCategory":1,"la1":30.2992,"la2":30.254,"lo1":-89.0895,"lo2":-89.0443,"dy":0.0025,"dx":0.0025,"nx":19,"ny":19,"refTime":"2026-03-23T03:00:00:Z","depth":0,"parameterNumber":2,"parameterNumberName":"U-component_of_WINDS"},"data":[0,0,0,-1.8764,-1.8763,-1.8705,-1.8705,-1.8619,-1.8618,0,0,0,0,0,0,0,0,0,0,0,-1.8778,-1.8777,-1.8764,-1.8763,-1.8705,-1.8705,-1.8619,-1.8618,0,0,0,0,0,0,0,0,0,0,0,-1.8778,-1.8777,-1.8777,-1.8763,-1.8705,-1.8705,-1.862,-1.8667,0,0,0,0,0,0,0,0,0,0,-1.8725,-1.8735,-1.8778,-1.8777,-1.8762,-1.8705,-1.8705,-1.8669,-1.8664,-1.8642,0,-1.8624,0,-1.862,-1.8612,-1.8612,0,0,0,-1.8765,-1.8739,-1.8727,-1.8776,-1.8762,-1.8705,-1.8732,-1.8666,-1.866,-1.8635,-1.8623,-1.862,-1.8618,-1.8612,-1.8611,-1.8479,-1.8478,0,0,-1.8768,-1.8765,-1.8731,-1.8723,-1.8734,-1.8733,-1.873,-1.8663,-1.8649,-1.8623,-1.8618,-1.8617,-1.8611,-1.861,-1.848,-1.8479,0,0,0,-1.8776,-1.8767,-1.8757,-1.8726,-1.8717,-1.8732,-1.8727,-1.8652,-1.8649,-1.8617,-1.8616,-1.8611,-1.8609,-1.8481,-1.848,-1.8438,0,0,0,-1.8778,-1.8772,-1.8758,-1.8756,-1.8718,-1.8684,-1.8718,-1.8653,-1.8646,-1.8616,-1.8611,-1.8609,-1.8482,-1.848,-1.8441,-1.8417,0,0,0,-1.8783,-1.8773,-1.8763,-1.8756,-1.8731,-1.8685,-1.8678,-1.8652,-1.8645,-1.8612,-1.8608,-1.8482,-1.848,-1.8443,-1.8421,-1.8376,0,0,0,-1.8787,-1.873,-1.8762,-1.8698,-1.8731,-1.8662,-1.8679,-1.8628,-1.8595,-1.861,-1.8482,-1.848,-1.8444,-1.8424,-1.8379,-1.8334,-1.8317,0,0,-1.8713,-1.8721,-1.8683,-1.871,-1.8634,-1.8671,-1.8587,-1.856,-1.856,-1.8505,-1.8502,-1.844,-1.8422,-1.8377,-1.823,-1.8216,0,0,0,-1.8658,-1.863,-1.861,-1.8579,-1.8557,-1.8533,-1.852,-1.8509,-1.8462,-1.8533,-1.8414,-1.8404,-1.8378,-1.8356,-1.8344,-1.8318,-1.8471,-1.8472,-1.8472,-1.8547,-1.8549,-1.8483,-1.8477,-1.8446,-1.843,-1.8403,-1.8385,-1.8398,-1.837,-1.8352,-1.8263,-1.8237,-1.8229,-1.8202,-1.8333,-1.8333,-1.8333,-1.8333,-1.8434,-1.8391,-1.8407,-1.8349,-1.8349,-1.83,-1.8281,-1.8291,-1.8241,-1.8278,-1.8255,-1.8289,-1.8213,-1.819,-1.833,-1.833,-1.833,-1.8331,-1.8331,-1.8356,-1.8335,-1.8324,-1.8274,-1.8235,-1.8231,-1.8181,-1.8185,-1.8189,-1.8166,-1.8143,-1.8143,-1.8139,-1.8156,-1.8156,-1.8155,-1.8155,-1.8155,-1.8155,-1.8278,-1.8266,-1.8225,-1.8194,-1.817,-1.8141,-1.8122,-1.8098,-1.8072,-1.8078,-1.8078,-1.8088,-1.8209,-1.8235,-1.815,-1.815,-1.8151,-1.8152,-1.8152,-1.8153,-1.8181,-1.8117,-1.8094,-1.8054,-1.801,-1.8017,-1.7967,-1.7949,-1.7922,-1.7938,-1.8028,-1.8036,-1.8045,-1.8066,-1.7943,-1.7943,-1.7943,-1.7943,-1.8083,-1.8088,-1.802,-1.7981,-1.7944,-1.7941,-1.7862,-1.7844,-1.7831,-1.7817,-1.7837,-1.7868,-1.7877,-1.7879,-1.7892,-1.7911,-1.7751,-1.775,-1.775,-1.8002,-1.8003,-1.7937,-1.7925,-1.7893,-1.7863,-1.7787,-1.7737,-1.7728,-1.7742,-1.7805,-1.7813,-1.7863,-1.788,-1.7892,-1.7912,-1.7948,0,0]},{"header":{"parameterUnit":"m.s-1","parameterCategory":1,"la1":30.2992,"la2":30.254,"lo1":-89.0895,"lo2":-89.0443,"dy":0.0025,"dx":0.0025,"nx":19,"ny":19,"refTime":"2026-03-23T03:00:00:Z","depth":0,"parameterNumber":3,"parameterNumberName":"V-component_of_WINDS"},"data":[0,0,0,-2.9063,-2.9063,-2.9058,-2.9058,-2.9037,-2.9037,0,0,0,0,0,0,0,0,0,0,0,-2.9058,-2.9058,-2.9064,-2.9063,-2.9058,-2.9058,-2.9037,-2.9037,0,0,0,0,0,0,0,0,0,0,0,-2.9058,-2.9058,-2.9058,-2.9063,-2.9058,-2.9058,-2.9037,-2.9046,0,0,0,0,0,0,0,0,0,0,-2.9053,-2.9042,-2.9058,-2.9057,-2.9063,-2.9058,-2.9058,-2.9047,-2.9045,-2.9034,0,-2.9024,0,-2.903,-2.9035,-2.9035,0,0,0,-2.9068,-2.9043,-2.9048,-2.9057,-2.9063,-2.9058,-2.9062,-2.9046,-2.9045,-2.9032,-2.9024,-2.9023,-2.903,-2.9035,-2.9035,-2.8957,-2.8956,0,0,-2.9068,-2.9053,-2.9049,-2.9047,-2.9049,-2.9062,-2.9061,-2.9045,-2.9034,-2.9024,-2.9023,-2.9029,-2.9034,-2.9034,-2.8957,-2.8957,0,0,0,-2.9066,-2.9053,-2.9059,-2.9047,-2.9048,-2.9062,-2.9061,-2.9035,-2.9038,-2.9023,-2.9029,-2.9034,-2.9034,-2.8958,-2.8957,-2.8912,0,0,0,-2.9066,-2.9052,-2.9059,-2.9049,-2.9048,-2.9042,-2.9051,-2.9039,-2.9038,-2.9029,-2.9034,-2.9034,-2.8959,-2.8958,-2.8915,-2.8892,0,0,0,-2.9061,-2.9051,-2.9048,-2.9049,-2.9046,-2.9042,-2.9045,-2.9039,-2.9041,-2.9035,-2.9033,-2.8959,-2.8958,-2.8917,-2.8896,-2.8865,0,0,0,-2.905,-2.9009,-2.9048,-2.9004,-2.9046,-2.9016,-2.9045,-2.9023,-2.9012,-2.9034,-2.8959,-2.8957,-2.8918,-2.8899,-2.8867,-2.8833,-2.8819,0,0,-2.899,-2.9001,-2.8977,-2.9011,-2.897,-2.9018,-2.897,-2.8974,-2.8987,-2.8966,-2.8964,-2.8914,-2.8896,-2.8865,-2.8749,-2.8738,0,0,0,-2.8953,-2.8934,-2.8927,-2.8917,-2.892,-2.8919,-2.8933,-2.8934,-2.8917,-2.8974,-2.8897,-2.8887,-2.8869,-2.8853,-2.8843,-2.8827,-2.8951,-2.8951,-2.8951,-2.8843,-2.8863,-2.8823,-2.8841,-2.8831,-2.8845,-2.8837,-2.8841,-2.8864,-2.8845,-2.8838,-2.8765,-2.8746,-2.8739,-2.8722,-2.8825,-2.8825,-2.8825,-2.8824,-2.8753,-2.8729,-2.8761,-2.8734,-2.8754,-2.873,-2.8742,-2.8759,-2.8738,-2.8773,-2.8758,-2.879,-2.8726,-2.8712,-2.8821,-2.8822,-2.8822,-2.8823,-2.8823,-2.868,-2.8671,-2.8676,-2.8662,-2.8648,-2.8669,-2.8648,-2.8668,-2.8687,-2.8673,-2.8665,-2.8665,-2.8665,-2.8668,-2.8668,-2.8668,-2.8668,-2.8667,-2.8667,-2.8601,-2.8607,-2.8587,-2.8587,-2.8582,-2.8578,-2.8593,-2.8588,-2.8587,-2.8603,-2.8603,-2.8625,-2.8718,-2.8738,-2.8663,-2.8664,-2.8665,-2.8665,-2.8665,-2.8495,-2.8522,-2.8491,-2.8487,-2.8488,-2.8471,-2.8499,-2.8487,-2.8487,-2.8474,-2.8501,-2.8568,-2.858,-2.8588,-2.8604,-2.85,-2.85,-2.85,-2.85,-2.843,-2.844,-2.8412,-2.8402,-2.8396,-2.8418,-2.8379,-2.8389,-2.8404,-2.8404,-2.8424,-2.8449,-2.8456,-2.8464,-2.8475,-2.849,-2.8359,-2.8358,-2.8358,-2.8364,-2.8374,-2.8338,-2.8355,-2.8357,-2.8357,-2.8321,-2.8307,-2.833,-2.8353,-2.8404,-2.841,-2.8451,-2.8464,-2.8484,-2.85,-2.8529,0,0]}]]